Location: Newark
(31.5350°N, 35.0986°E)
Time: 11:27:38
(UTC+00:00)

Vanguard 1 - Pass Details

Date: 29 September 2019
Orbit: 653 x 3830 km, 34.3° (Epoch: 13 October)

Event Time Altitude Azimuth Distance (km) Brightness Sun altitude
Rises 03:19:07 0° 290° (WNW) 7,963 14.1 -3.5°
Reaches altitude 10° 03:24:51 10° 288° (WNW) 6,825 13.7 -2.3°
Maximum altitude 03:46:00 64° 213° (SSW) 2,984 12.5 2.2°
Drops below altitude 10° 03:58:20 10° 135° (SE) 4,237 14.2 4.8°
Sets 04:01:00 0° 131° (SE) 4,906 14.7 5.4°
